Vorticity
9 10 10 10 9 9 9 8 7 7 7 7 7 7 7 8 8 7 7 6 6 6 8 5 4 3 3 3 3 4 4 4
9 7 7 7 5 4 4 5 5 6 6 5 5 5 4 4 5 6 7 9 9 12 12 14 15 16 12 11 12 13 14 7
5 5 5 6 8 7 6 6 6 6 6 6 7 6 5 5 6 7 7 8 8 9 9 11 9 14 12 12 12 9 7 13
6 5 6 6 3 4 5 8 9 6 1 2 7 10 21 24 25 24 19 18 16 14 12 11 9 8 8 6 6 8 8 5
7 5 6 6 5 7 8 6 3 1 7 8 12 12 13 15 18 12 11 12 10 13 12 15 12 10 9 9 7 9 10 6
6 9 7 7 6 6 6 2 2 3 2 5 13 14 14 11 13 16 18 21 20 17 13 10 16 11 12 5 5 9 11 14
7 6 7 6 5 3 4 5 5 12 18 20 18 12 11 15 14 13 6 9 15 20 22 9 11 14 16 18 14 5 4 9
7 7 7 6 7 6 4 14 23 17 19 18 10 12 18 14 9 7 7 7 7 21 11 0 20 18 16 19 19 9 5 21
9 7 6 8 4 6 21 14 17 16 12 10 14 14 9 7 15 17 15 9 5 13 32 8 10 6 -11 3 5 35 13 13
5 5 9 3 7 17 10 13 13 9 13 6 6 5 5 5 7 10 15 11 9 14 23 29 31 12 9 49 37 7 13 15
8 8 4 5 12 15 13 12 11 6 13 5 3 8 11 5 12 12 10 17 2 8 40 14 6 13 10 29 19 8 34 18
4 8 3 11 10 9 13 12 6 8 13 9 3 8 12 14 10 17 16 15 13 1 21 35 8 11 37 14 12 24 11 -1
12 5 7 9 8 13 7 11 8 7 7 8 11 16 9 8 12 12 13 17 16 8 4 27 24 11 18 24 13 -8 -2 1
4 9 8 7 7 10 13 8 14 23 16 10 8 11 8 8 11 15 12 15 14 12 12 -1 25 24 7 3 17 -14 20 12
7 1 -6 6 6 14 2 9 11 -11 11 16 10 8 6 9 10 12 17 16 14 14 13 10 16 4 26 14 18 28 7 -4
7 -6 -4 13 10 22 17 11 11 5 12 8 9 13 12 12 12 13 15 18 13 14 11 9 17 6 24 11 7 3 6 5
21 -1 3 24 13 14 10 9 13 13 5 10 16 18 13 15 17 17 19 24 21 19 17 14 13 16 14 17 22 16 16 17
2 23 17 15 17 9 14 14 12 6 3 16 15 17 17 12 11 20 32 25 25 10 8 17 17 16 15 15 15 13 14 18
14 11 13 12 12 11 16 -2 7 5 11 22 16 13 13 12 27 32 17 22 6 11 6 13 10 11 11 9 12 14 17 16
Height
5772 5771 5769 5769 5767 5766 5765 5763 5762 5762 5761 5760 5758 5757 5756 5755 5755 5753 5753 5753 5751 5748 5747 5747 5746 5745 5746 5746 5748 5748 5748 5748
5763 5762 5761 5760 5759 5758 5757 5756 5753 5751 5750 5748 5746 5745 5743 5741 5740 5738 5737 5737 5736 5734 5732 5733 5733 5732 5731 5729 5731 5733 5732 5730
5754 5753 5753 5752 5751 5749 5747 5746 5744 5742 5740 5737 5734 5731 5730 5726 5725 5723 5721 5720 5719 5717 5716 5716 5716 5716 5716 5717 5716 5716 5716 5715
5744 5744 5743 5742 5741 5739 5738 5736 5733 5730 5727 5724 5720 5717 5714 5711 5709 5706 5704 5702 5701 5699 5698 5698 5699 5699 5699 5700 5701 5701 5700 5698
5735 5734 5734 5734 5732 5729 5727 5725 5722 5717 5711 5707 5702 5699 5696 5694 5692 5689 5687 5686 5684 5683 5681 5680 5679 5679 5680 5680 5680 5682 5685 5686
5726 5725 5725 5723 5721 5719 5716 5712 5708 5703 5698 5693 5689 5684 5681 5678 5675 5672 5670 5670 5668 5666 5663 5662 5662 5661 5662 5664 5666 5667 5669 5672
5715 5715 5713 5711 5708 5705 5702 5699 5695 5690 5686 5682 5676 5672 5667 5664 5661 5659 5656 5654 5652 5651 5647 5648 5646 5645 5646 5649 5651 5653 5654 5657
5705 5704 5702 5700 5697 5694 5690 5686 5682 5678 5674 5670 5665 5661 5657 5654 5650 5647 5643 5640 5638 5635 5633 5633 5631 5631 5633 5635 5637 5639 5642 5643
5695 5693 5692 5689 5685 5682 5678 5675 5670 5667 5663 5659 5654 5651 5648 5645 5641 5637 5633 5629 5625 5622 5619 5618 5618 5620 5621 5622 5624 5625 5628 5631
5683 5683 5681 5679 5675 5672 5668 5663 5660 5656 5652 5649 5645 5642 5638 5634 5631 5627 5623 5619 5615 5610 5607 5605 5606 5607 5607 5608 5609 5612 5617 5620
5671 5671 5669 5667 5664 5661 5658 5653 5649 5645 5641 5638 5635 5631 5627 5623 5619 5615 5612 5608 5605 5601 5597 5596 5596 5596 5595 5595 5598 5602 5606 5610
5660 5659 5658 5655 5653 5650 5647 5643 5638 5635 5631 5627 5624 5620 5616 5612 5608 5604 5601 5598 5595 5592 5589 5586 5587 5587 5586 5588 5590 5593 5598 5601
5647 5647 5646 5645 5641 5639 5634 5631 5627 5624 5620 5617 5614 5610 5606 5602 5598 5594 5591 5588 5585 5583 5581 5578 5578 5578 5578 5579 5582 5586 5589 5592
5636 5635 5635 5634 5630 5627 5623 5620 5617 5613 5610 5607 5603 5600 5596 5592 5587 5584 5581 5578 5576 5574 5573 5571 5571 5570 5570 5572 5576 5578 5580 5582
5625 5624 5624 5622 5619 5617 5613 5609 5606 5603 5600 5597 5593 5589 5585 5581 5578 5574 5571 5569 5567 5566 5565 5564 5563 5564 5563 5564 5566 5569 5572 5574
5615 5613 5614 5610 5607 5604 5602 5598 5595 5593 5590 5587 5583 5579 5574 5571 5567 5564 5561 5560 5559 5559 5557 5557 5557 5556 5557 5558 5559 5562 5564 5564
5604 5601 5601 5599 5595 5593 5590 5588 5585 5583 5580 5576 5573 5569 5565 5561 5557 5554 5552 5551 5551 5551 5551 5551 5551 5551 5552 5553 5554 5555 5556 5556
5591 5591 5590 5588 5585 5582 5580 5578 5576 5574 5571 5567 5563 5560 5556 5552 5548 5545 5543 5544 5545 5546 5547 5547 5547 5547 5547 5548 5548 5548 5547 5547
5583 5580 5578 5577 5574 5572 5570 5569 5567 5565 5561 5558 5555 5552 5549 5545 5542 5539 5539 5539 5541 5542 5543 5543 5544 5543 5543 5543 5543 5541 5542 5542